• In Deutschland
  • Länderverzeichnis
  • Für 7 Tage
  • Wassertemperatur
  • Satellitenkarten
  • Wetterkarte
  • Widgets
  • user-avatar
    Anmelden

    Stündliche Wetter Bad Reichenhall

    Heute, 25 April, Mittwoch

    Zeit Temperatur Niederschläge Wind Luftdruck Luftfeuchtigkeit
    00:00 +13°C° 0 mm 2 m/S 716 mmHg 87%
    01:00 +13°C° 0 mm 2 m/S 715 mmHg 84%
    02:00 +13°C° 0 mm 2 m/S 715 mmHg 84%
    03:00 +12°C° 0 mm 2 m/S 715 mmHg 84%
    04:00 +12°C° 0 mm 2 m/S 715 mmHg 85%
    05:00 +13°C° 0 mm 1 m/S 715 mmHg 82%
    06:00 +14°C° 0 mm 1 m/S 715 mmHg 79%
    07:00 +16°C° 0 mm 1 m/S 715 mmHg 76%
    08:00 +18°C° 0 mm 2 m/S 715 mmHg 69%
    09:00 +20°C° 0 mm 2 m/S 715 mmHg 62%
    10:00 +23°C° 0 mm 2 m/S 715 mmHg 55%
    11:00 +23°C° 0 mm 2 m/S 715 mmHg 54%
    12:00 +24°C° 0 mm 2 m/S 715 mmHg 53%
    13:00 +24°C° 0 mm 2 m/S 714 mmHg 52%
    14:00 +24°C° 0,1 mm 2 m/S 714 mmHg 55%
    15:00 +22°C° 0,1 mm 3 m/S 714 mmHg 58%
    16:00 +22°C° 0,1 mm 3 m/S 713 mmHg 61%
    17:00 +20°C° 0,4 mm 2 m/S 713 mmHg 70%
    18:00 +18°C° 0,4 mm 2 m/S 713 mmHg 79%
    19:00 +16°C° 0,4 mm 2 m/S 713 mmHg 89%
    20:00 +16°C° 0,4 mm 2 m/S 714 mmHg 90%
    21:00 +15°C° 0,4 mm 2 m/S 714 mmHg 92%
    22:00 +15°C° 0,4 mm 1 m/S 715 mmHg 93%
    23:00 +14°C° 0,7 mm 1 m/S 715 mmHg 94%

    Morgen, 26 April, Donnerstag

    Zeit Temperatur Niederschläge Wind Luftdruck Luftfeuchtigkeit
    00:00 +14°C° 0,7 mm 2 m/S 715 mmHg 95%
    01:00 +14°C° 0,7 mm 2 m/S 715 mmHg 96%
    02:00 +13°C° 0,9 mm 2 m/S 715 mmHg 96%
    03:00 +13°C° 0,9 mm 2 m/S 715 mmHg 96%
    04:00 +12°C° 0,9 mm 2 m/S 715 mmHg 96%
    05:00 +12°C° 0,8 mm 2 m/S 715 mmHg 96%
    06:00 +10°C° 0,8 mm 2 m/S 715 mmHg 96%
    07:00 +10°C° 0,8 mm 2 m/S 715 mmHg 96%
    08:00 +10°C° 1 mm 2 m/S 715 mmHg 95%
    09:00 +10°C° 1 mm 2 m/S 716 mmHg 94%
    10:00 +10°C° 1 mm 2 m/S 716 mmHg 94%
    11:00 +10°C° 0,8 mm 2 m/S 716 mmHg 93%
    12:00 +10°C° 0,8 mm 2 m/S 716 mmHg 92%
    13:00 +10°C° 0,8 mm 2 m/S 716 mmHg 91%
    14:00 +10°C° 0,5 mm 2 m/S 716 mmHg 90%
    15:00 +12°C° 0,5 mm 2 m/S 716 mmHg 88%
    16:00 +12°C° 0,5 mm 2 m/S 716 mmHg 86%
    17:00 +10°C° 0,1 mm 2 m/S 716 mmHg 88%
    18:00 +11°C° 0,1 mm 1 m/S 716 mmHg 89%
    19:00 +10°C° 0,1 mm 1 m/S 717 mmHg 91%
    20:00 +10°C° 0 mm 1 m/S 717 mmHg 91%
    21:00 +10°C° 0 mm 1 m/S 718 mmHg 91%
    22:00 +9°C° 0 mm 1 m/S 718 mmHg 91%
    23:00 +9°C° 0 mm 1 m/S 718 mmHg 92%

    übermorgen, 27 April, Freitag

    Zeit Temperatur Niederschläge Wind Luftdruck Luftfeuchtigkeit
    00:00 +8°C° 0 mm 1 m/S 718 mmHg 93%
    01:00 +7°C° 0 mm 1 m/S 717 mmHg 94%
    02:00 +7°C° 0 mm 1 m/S 717 mmHg 94%
    03:00 +7°C° 0 mm 1 m/S 717 mmHg 94%
    04:00 +6°C° 0 mm 1 m/S 716 mmHg 94%
    05:00 +8°C° 0 mm 1 m/S 716 mmHg 92%
    06:00 +8°C° 0 mm 2 m/S 716 mmHg 89%
    07:00 +9°C° 0 mm 2 m/S 715 mmHg 87%
    08:00 +12°C° 0 mm 2 m/S 715 mmHg 79%
    09:00 +15°C° 0 mm 2 m/S 715 mmHg 71%
    10:00 +17°C° 0 mm 3 m/S 714 mmHg 63%
    11:00 +19°C° 0 mm 3 m/S 714 mmHg 60%
    12:00 +20°C° 0 mm 3 m/S 714 mmHg 57%
    13:00 +22°C° 0 mm 3 m/S 714 mmHg 54%
    14:00 +23°C° 0 mm 2 m/S 713 mmHg 55%
    15:00 +23°C° 0 mm 2 m/S 713 mmHg 57%
    16:00 +23°C° 0 mm 2 m/S 713 mmHg 58%
    17:00 +20°C° 0 mm 2 m/S 713 mmHg 66%
    18:00 +18°C° 0 mm 2 m/S 712 mmHg 75%
    19:00 +16°C° 0 mm 1 m/S 712 mmHg 83%
    20:00 +15°C° 0,1 mm 1 m/S 713 mmHg 86%
    21:00 +14°C° 0,1 mm 1 m/S 713 mmHg 89%
    22:00 +13°C° 0,1 mm 2 m/S 714 mmHg 91%
    23:00 +13°C° 0 mm 2 m/S 714 mmHg 91%

    28 April, Samstag

    Zeit Temperatur Niederschläge Wind Luftdruck Luftfeuchtigkeit
    00:00 +13°C° 0 mm 2 m/S 714 mmHg 91%
    01:00 +13°C° 0 mm 2 m/S 714 mmHg 90%
    02:00 +12°C° 0,1 mm 1 m/S 715 mmHg 91%
    03:00 +12°C° 0,1 mm 1 m/S 715 mmHg 93%
    04:00 +12°C° 0,1 mm 1 m/S 715 mmHg 94%
    05:00 +12°C° 0,1 mm 1 m/S 715 mmHg 93%
    06:00 +12°C° 0,1 mm 0 m/S 715 mmHg 91%
    07:00 +12°C° 0,1 mm 0 m/S 715 mmHg 90%
    08:00 +15°C° 0 mm 1 m/S 715 mmHg 84%
    09:00 +16°C° 0 mm 1 m/S 716 mmHg 78%
    10:00 +17°C° 0 mm 2 m/S 716 mmHg 71%
    11:00 +18°C° 0,1 mm 2 m/S 715 mmHg 69%
    12:00 +19°C° 0,1 mm 2 m/S 715 mmHg 67%
    13:00 +19°C° 0,1 mm 2 m/S 715 mmHg 65%
    14:00 +19°C° 0,1 mm 2 m/S 715 mmHg 66%
    15:00 +19°C° 0,1 mm 2 m/S 714 mmHg 67%
    16:00 +19°C° 0,1 mm 2 m/S 714 mmHg 69%
    17:00 +18°C° 0,2 mm 2 m/S 714 mmHg 75%
    18:00 +18°C° 0,2 mm 1 m/S 714 mmHg 82%
    19:00 +15°C° 0,2 mm 1 m/S 714 mmHg 89%
    20:00 +14°C° 0,1 mm 1 m/S 714 mmHg 90%
    21:00 +13°C° 0,1 mm 1 m/S 714 mmHg 92%
    22:00 +12°C° 0,1 mm 1 m/S 714 mmHg 94%
    23:00 +12°C° 0 mm 1 m/S 714 mmHg 94%

    29 April, Sonntag

    Zeit Temperatur Niederschläge Wind Luftdruck Luftfeuchtigkeit
    00:00 +12°C° 0 mm 1 m/S 714 mmHg 94%
    01:00 +11°C° 0 mm 1 m/S 714 mmHg 93%
    02:00 +11°C° 0 mm 1 m/S 713 mmHg 93%
    03:00 +11°C° 0 mm 1 m/S 713 mmHg 92%
    04:00 +10°C° 0 mm 1 m/S 713 mmHg 92%
    05:00 +12°C° 0 mm 1 m/S 713 mmHg 88%
    06:00 +13°C° 0 mm 1 m/S 713 mmHg 85%
    07:00 +14°C° 0 mm 1 m/S 713 mmHg 81%
    08:00 +18°C° 0 mm 1 m/S 713 mmHg 71%
    09:00 +21°C° 0 mm 1 m/S 713 mmHg 61%
    10:00 +23°C° 0 mm 2 m/S 713 mmHg 52%
    11:00 +24°C° 0 mm 2 m/S 713 mmHg 49%
    12:00 +25°C° 0 mm 2 m/S 713 mmHg 47%
    13:00 +26°C° 0 mm 2 m/S 712 mmHg 45%
    14:00 +26°C° 0 mm 2 m/S 712 mmHg 47%
    15:00 +26°C° 0 mm 2 m/S 712 mmHg 48%
    16:00 +26°C° 0 mm 2 m/S 711 mmHg 50%
    17:00 +24°C° 0 mm 2 m/S 711 mmHg 59%
    18:00 +21°C° 0 mm 2 m/S 711 mmHg 67%
    19:00 +19°C° 0 mm 2 m/S 710 mmHg 76%
    20:00 +17°C° 0 mm 2 m/S 710 mmHg 78%
    21:00 +16°C° 0 mm 2 m/S 710 mmHg 79%
    22:00 +15°C° 0 mm 2 m/S 710 mmHg 81%
    23:00 +14°C° 0 mm 2 m/S 710 mmHg 82%

    30 April, Montag

    Zeit Temperatur Niederschläge Wind Luftdruck Luftfeuchtigkeit
    00:00 +14°C° 0 mm 2 m/S 710 mmHg 82%
    01:00 +13°C° 0 mm 2 m/S 710 mmHg 83%
    02:00 +13°C° 0 mm 2 m/S 709 mmHg 82%
    03:00 +12°C° 0 mm 2 m/S 709 mmHg 82%
    04:00 +12°C° 0 mm 2 m/S 709 mmHg 82%
    05:00 +13°C° 0 mm 2 m/S 709 mmHg 78%
    06:00 +14°C° 0 mm 2 m/S 709 mmHg 74%
    07:00 +16°C° 0 mm 2 m/S 708 mmHg 70%
    08:00 +18°C° 0 mm 2 m/S 709 mmHg 62%
    09:00 +21°C° 0 mm 2 m/S 709 mmHg 54%
    10:00 +25°C° 0 mm 2 m/S 709 mmHg 46%
    11:00 +25°C° 0 mm 2 m/S 709 mmHg 46%
    12:00 +25°C° 0 mm 3 m/S 710 mmHg 47%
    13:00 +26°C° 0 mm 3 m/S 710 mmHg 47%
    14:00 +22°C° 1,5 mm 3 m/S 710 mmHg 59%
    15:00 +20°C° 1,5 mm 3 m/S 710 mmHg 71%
    16:00 +18°C° 1,5 mm 3 m/S 710 mmHg 83%
    17:00 +17°C° 0,5 mm 3 m/S 710 mmHg 86%
    18:00 +16°C° 0,5 mm 3 m/S 711 mmHg 89%
    19:00 +15°C° 0,5 mm 2 m/S 711 mmHg 91%
    20:00 +14°C° 0,1 mm 2 m/S 712 mmHg 92%
    21:00 +14°C° 0,1 mm 1 m/S 712 mmHg 92%
    22:00 +13°C° 0,1 mm 1 m/S 713 mmHg 92%
    23:00 +13°C° 0 mm 1 m/S 712 mmHg 92%
    Mehr zeigen